Voltar ao catálogo

CZ-6A DEB

AtivoSSO
NORAD 55543·DEBRIS·🇨🇳 China

Lançado Nov 11, 2022 de Taiyuan Satellite Launch Center

Loading…

Próximas Passagens (próximas 24 horas)

TLE

AtualizadoSource: Space-Track

Época: Sep 14, 2026, 01:08 UTC

1 55543U 22151YR  26257.04785722  .00004027  00000-0  76831-3 0  9991
2 55543  98.5128 299.6919 0127115  34.0922 326.8360 14.59487483197254

Acompanhe CZ-6A DEB em tempo real com AllMySat

Download on the App Store